Regional Weather Roundup
Issued by NWS Midland/Odessa, TX

Skip options and go directly to product.
Home | Oldest Version | Next Version | Current Version | All | Text Only | Save Text | Print | Product List | Glossary On

Skip product version selection by date and time.   
882
ASUS44 KMAF 261701
RWRMAF
MIDLAND AREA WEATHER ROUNDUP
NATIONAL WEATHER SERVICE MIDLAND TX
1200 PM CDT TUE JUL 26 2016

...IN SOUTHWEST TEXAS AND SOUTHEAST NEW MEXICO...

CITY           SKY/WX    TMP DP  RH WIND       PRES   REMARKS
ALPINE         SUNNY     87  56  35 NE10      30.22S
ANDREWS        FAIR      88  60  38 E12G17    30.10S
ARTESIA        SUNNY     82  64  54 NE8       30.14F
BIG SPRING     CLOUDY    83  69  63 NE7       30.10R
CARLSBAD       SUNNY     85  60  42 VRB5      30.11S
DRYDEN           N/A     91  69  48 NE6       29.99F
FORT STOCKTON  SUNNY     90  64  42 VRB6      30.06F
GUAD PASS      SUNNY     80  58  46 E14G22    30.26R
HOBBS          MOSUNNY   90  57  33 NE8       30.14S
MARFA          MOSUNNY   86  57  37 NE15G22   30.20S
MIDLAND AIRPK  MOSUNNY   90  61  38 N9        30.08F
MIDLAND INTL   MOSUNNY   91  63  39 NE10      30.08S
ODESSA         MOSUNNY   91  62  37 NE13G18   30.09S
PECOS          SUNNY     91  61  36 NW5       30.05S
PRESIDIO       FAIR      94  60  31 CALM      30.02F
SEMINOLE       PTSUNNY   89  57  34 E12G18    30.12S
SNYDER           N/A     88  66  48 N6        30.06S
WINK           SUNNY     92  60  34 N10       30.05F
$$
...OTHER STATIONS IN TEXAS...

CITY           SKY/WX    TMP DP  RH WIND       PRES   REMARKS
ABILENE        SUNNY     89  66  46 CALM      30.02F
AMARILLO       SUNNY     88  58  36 NW7       30.13S
AUSTIN         PTSUNNY   86  75  69 CALM      29.96S
BROWNSVILLE    MOSUNNY   95  72  47 S18G25    29.92S HX 103
CORPUS CHRISTI CLOUDY    89  74  60 SE13      29.93S
DALLAS FTW     MOSUNNY   91  71  51 VRB5      29.97S
DEL RIO        SUNNY     91  68  46 VRB7      29.93F
EL PASO        MOSUNNY   88  58  36 N7        30.12F
HOUSTON INT    PTSUNNY   88  75  65 NE5       29.94S
LUBBOCK        MOSUNNY   91  57  31 N13       30.10F
SAN ANGELO     SUNNY     91  68  46 NE8       30.01F
SAN ANTONIO    PTSUNNY   85  74  69 E8        29.98R
WACO           MOSUNNY   88  72  58 N6        29.97S
WICHITA FALLS  NOT AVBL
$$
...OTHER LOCATIONS IN NEW MEXICO...

CITY           SKY/WX    TMP DP  RH WIND       PRES   REMARKS
ALAMAGORDO     CLOUDY    86  55  35 W7        30.16S
ALBUQUERQUE    MOSUNNY   78  58  49 NW6       30.26F
CANNON AFB     PTSUNNY   82  58  44 VRB2      30.17S
CLOVIS         CLOUDY    84  55  37 W3        30.17S
HOLLOMAN AFB   CLOUDY    84  55  36 N5        30.14F
ROSWELL        SUNNY     82  63  52 NE6       30.14F
RUIDOSO          N/A     75  52  43 NW7       30.37S
SANTA FE       SUNNY     79  54  41 VRB3      30.30F
TRUTH OR CONSE MOSUNNY   83  57  41 SE7       30.19F
TUCUMCARI      SUNNY     83  59  44 MISG      30.14F
$$

USA.gov is the U.S. government's official web portal to all federal, state and local government web resources and services.